Retour au catalogue

NOAA 16 DEB

ActifPO
NORAD 42351·DEBRIS·🇺🇸 United States

Lancé Sep 21, 2000 depuis Vandenberg Space Force Base

Loading…

Prochains Passages (prochaines 24 heures)

TLE

FraisSource: Space-Track

Époque: Sep 12, 2026, 08:35 UTC

1 42351U 00055QT  26255.35830783  .00006599  00000-0  12269-2 0  9993
2 42351  98.7032  38.7674 0028407  33.6125 326.6871 14.65242029546229

Suivez NOAA 16 DEB en temps réel avec AllMySat

Download on the App Store